Regional Weather Roundup
Issued by NWS

Home | Current Version | Previous Version | Graphics & Text | Print | Product List | Glossary On
Versions: 1 2 3 4 5 6 7 8 9 10 11 12 13 14 15 16 17 18 19 20 21 22 23 24 25 26 27 28 29 30 31 32 33 34 35 36 37 38 39 40 41 42 43 44 45 46 47 48 49 50
000
ASUS44 KMEG 261900
RWRTN
TENNESSEE HOURLY STATE WEATHER ROUNDUP
NATIONAL WEATHER SERVICE MEMPHIS TN
100 PM CST THU FEB 26 2015

TNZ002-004-019-021-049-052-054-088>092-262000-
WEST TENNESSEE

CITY           SKY/WX    TMP DP  RH WIND       PRES   REMARKS
MEMPHIS INTL   CLOUDY    39  29  67 N14       30.15R WCI  31
NWS MEMPHIS      N/A     40 N/A N/A MISG        N/A
JACKSON        CLOUDY    41  24  51 NW10      30.11R
DYERSBURG      CLOUDY    34  16  47 N14       30.17R WCI  24
PARIS          CLOUDY    32  21  64 NW8       30.11R WCI  25
LEXINGTON      CLOUDY    43  21  42 NW8       30.06R
SAVANNAH       CLOUDY    41  27  56 VRB5      30.08S
$$

TNZ008-025-027-028-033-062-065-066-262000-
NORTH MIDDLE TENNESSEE

CITY           SKY/WX    TMP DP  RH WIND       PRES   REMARKS
NASHVILLE      CLOUDY    44  23  43 N9        30.04S
CLARKSVILLE    CLOUDY    37  24  59 NW13      30.07S WCI  29
CROSSVILLE     MOSUNNY   34  24  67 N7        29.95S WCI  28
$$

TNZ061-075-076-078-094-096-097-262000-
SOUTH MIDDLE TENNESSEE

CITY           SKY/WX    TMP DP  RH WIND       PRES   REMARKS
FAYETTEVILLE   MOSUNNY   36  27  69 N8          N/A  WCI  29
TULLAHOMA      MOSUNNY   36  27  69 NW10      30.01S WCI  28
WINCHESTER     MOSUNNY   36  27  69 N8        30.01S WCI  29
$$

TNZ017-018-042-046-047-262000-
NORTHEAST TENNESSEE

CITY           SKY/WX    TMP DP  RH WIND       PRES   REMARKS
TRI CITIES     LGT SNOW  35  30  82 W9        29.92R WCI  28
ELIZABETHTON   CLOUDY    32  28  86 SW6       29.91R WCI  26
$$

TNZ012-013-036-069-073-074-262000-
CENTRAL EAST TENNESSEE

CITY           SKY/WX    TMP DP  RH WIND       PRES   REMARKS
KNOXVILLE      CLOUDY    35  30  82 CALM      29.96S
OAK RIDGE      CLOUDY    40  27  59 VRB5      29.98S
$$

TNZ083-085-099-262000-
SOUTHEAST TENNESSEE

CITY           SKY/WX    TMP DP  RH WIND       PRES   REMARKS
CHATTANOOGA    CLOUDY    39  29  67 NW8       30.00R WCI  33
$$

SKY/WX REPORTED AS FAIR MEANS FEW OR NO CLOUDS BELOW
12 THOUSAND FEET.




USA.gov is the U.S. government's official web portal to all federal, state and local government web resources and services.